This demonstration page uses our WeatherBlox Daily Observations layout. Learn more.

Left ArrowRight Arrow

Hourly Observations for September 3, 2021

Temp ( °F °C ) Dew Point ( °F °C ) Humidity (%) Winds ( mph kmh ) Pressure ( in mb ) Visibility ( mi km ) Precip ( " mm )
12:51 am 00:51 Clear 72 22.2 66 18.9 82 82 NNW 3 6 29.80 1009 10 16 N/A
1:51 am 01:51 Clear 71 21.7 66 18.9 84 84 SW 3 6 29.80 1009 10 16 N/A
2:51 am 02:51 Clear 69 20.6 66 18.9 90 90 NE 3 6 29.80 1009 10 16 N/A
3:51 am 03:51 Clear 68 20 67 19.4 96 96 ESE 3 6 29.82 1010 10 16 N/A
4:51 am 04:51 Clear 68 20 66 18.9 93 93 S 5 7 29.82 1010 10 16 N/A
5:51 am 05:51 Clear 67 19.4 66 18.9 97 97 N N/A 29.84 1011 10 16 N/A
6:51 am 06:51 Sunny 71 21.7 68 20 90 90 N N/A 29.85 1011 10 16 N/A
7:51 am 07:51 Sunny 73 22.8 66 18.9 79 79 N N/A 29.86 1011 10 16 N/A
8:51 am 08:51 Sunny 74 23.3 66 18.9 76 76 N N/A 29.88 1012 10 16 N/A
9:51 am 09:51 Sunny 78 25.6 67 19.4 69 69 S 5 7 29.88 1012 10 16 N/A
10:51 am 10:51 Sunny 81 27.2 66 18.9 61 61 NW 6 9 29.86 1011 10 16 N/A
11:51 am 11:51 Sunny 84 28.9 66 18.9 55 55 W 6 9 29.84 1010 10 16 N/A
12:51 pm 12:51 Sunny 87 30.6 62 16.7 43 43 W 8 13 29.80 1009 10 16 N/A
1:51 pm 13:51 Sunny 88 31.1 61 16.1 40 40 NNW 3 6 29.78 1008 10 16 N/A
2:51 pm 14:51 Sunny 89 31.7 56 13.3 33 33 W 7 11 29.75 1008 10 16 N/A
3:51 pm 15:51 Sunny 90 32.2 55 12.8 31 31 W 7 11 29.74 1007 10 16 N/A
4:51 pm 16:51 Sunny 90 32.2 52 11.1 27 27 W 7 11 29.73 1007 10 16 N/A
5:51 pm 17:51 Sunny 89 31.7 56 13.3 33 33 WNW 7 11 29.72 1007 10 16 N/A
6:51 pm 18:51 Clear 86 30 62 16.7 45 45 N N/A 29.74 1007 10 16 N/A
7:51 pm 19:51 Clear 83 28.3 67 19.4 59 59 NW 3 6 29.76 1008 10 16 N/A
8:51 pm 20:51 Clear 82 27.8 65 18.3 56 56 N N/A 29.77 1008 10 16 N/A
9:51 pm 21:51 Clear 79 26.1 67 19.4 67 67 NNW 3 6 29.78 1008 10 16 N/A
10:51 pm 22:51 Clear 78 25.6 67 19.4 69 69 SSE 3 6 29.78 1008 10 16 N/A
11:51 pm 23:51 Clear 77 25 68 20 74 74 E 3 6 29.78 1009 10 16 N/A

Powered by AerisWeather